Regional Weather Roundup
Issued by NWS

Home | Current Version | Previous Version | Text Only | Print | Product List | Glossary Off
Versions: 1 2 3 4 5 6 7 8 9 10 11 12 13 14 15 16 17 18 19 20 21 22 23 24 25 26 27 28 29 30 31 32 33 34 35 36 37 38 39 40 41 42 43 44 45 46 47 48 49 50

000
ASUS43 KMPX 290610
RWRMN
WEATHER ROUNDUP FOR MINNESOTA
NATIONAL WEATHER SERVICE TWIN CITIES/CHANHASSEN MN
100 AM CDT SUN MAY 29 2016


NOTE: "FAIR" INDICATES FEW OR NO CLOUDS BELOW 12,000 FEET WITH NO
SIGNIFICANT WEATHER AND/OR OBSTRUCTIONS TO VISIBILITY. N/A MEANS
CURRENT SKY AND/OR WEATHER CONDITIONS ARE NOT AVAILABLE.

MNZ060>063-068>070-290700-
   Twin Cities Metro

CITY           SKY/WX    TMP DP  RH WIND       PRES   REMARKS
TWIN CITIES    CLOUDY    63  60  90 W5        29.83R
6HR MIN TEMP:  63; 6HR MAX TEMP:  65; 6HR PCP:  0.02;

ST PAUL        CLOUDY    62  61  96 W3        29.83S
CRYSTAL        CLOUDY    63  59  87 W5        29.82R
BLAINE         PTCLDY    64  63  94 W3        29.83R
EDEN PRAIRIE   CLOUDY    63  60  90 W3        29.83R FOG
6HR MIN TEMP:  62; 6HR MAX TEMP:  64; 6HR PCP:  0.01;

SOUTH ST PAUL  CLOUDY    63  61  94 W5        29.83R FOG
LAKE ELMO      CLOUDY    61  61 100 CALM      29.84R
$$
MNZ001>005-007-008-013>017-022>024-027-028-290700-
   Northwest Minnesota

CITY           SKY/WX    TMP DP  RH WIND       PRES   REMARKS
BEMIDJI        LGT RAIN  57  56  99 NW5       29.82F
HALLOCK        CLOUDY    61  57  88 CALM      29.87R
ROSEAU         RAIN      55  52  88 N6        29.86S
WARROAD        CLOUDY    55  52  88 N5        29.86S FOG
THIEF RVR FALL CLOUDY    57  54  88 N5        29.87S
CROOKSTON      LGT RAIN  59  57  94 N3        29.87R
FOSSTON        DRIZZLE   55  54  94 N7        29.85F
DETROIT LAKES  RAIN      59  57  94 NW5       29.86S
MOORHEAD       PTCLDY    59  57  94 NW3       29.87R
PARK RAPIDS    CLOUDY    59  57  93 NW5       29.83S
MAHNOMEN       DRIZZLE   57  57  98 N8        29.85S
$$
MNZ006-009>011-018-025>026-290700-
   North Central Minnesota

CITY           SKY/WX    TMP DP  RH WIND       PRES   REMARKS
BAUDETTE       CLOUDY    55  53  93 NW5       29.82F
FLAG ISLAND    LGT RAIN  55  54  94 NE10      29.84S
INTL FALLS     CLOUDY    57  56  96 NE5       29.80S FOG
6HR MIN TEMP:  57; 6HR MAX TEMP:  59; 6HR PCP:  0.04;

WASKISH        LGT RAIN  55  55 100 NW5       29.83R
BIG FORK       RAIN      59  57  94 CALM      29.81S VSB 1
LONGVILLE      CLOUDY    59  57  94 W3        29.82S
GRAND RAPIDS   LGT RAIN  59  58  96 S3        29.82S FOG
CRANE LAKE     RAIN      57  57 100 CALM      29.82R
ORR            FOG       59  55  88 CALM      29.78S VSB 3/4
COOK           CLOUDY    57  57 100 CALM      29.81S FOG
WALKER         CLOUDY    57  57  98 W5        29.82S
$$
MNZ012-019>021-037-290700-
   Northeast Minnesota

CITY           SKY/WX    TMP DP  RH WIND       PRES   REMARKS
DULUTH         CLOUDY    56  55  97 CALM      29.81S FOG
6HR MIN TEMP:  54; 6HR MAX TEMP:  56; 6HR PCP:  0.02;

ELY            CLOUDY    59  57  94 CALM      29.80S
HIBBING        LGT RAIN  58  58 100 CALM      29.81R FOG
EVELETH        CLOUDY    57  55  94 CALM      29.82S
DULUTH HARBOR  FOG       52  48  87 CALM      29.82S VSB 1/2
TWO HARBORS    HAZE      55  50  82 CALM      29.79S VSB 1/4
SILVER BAY     FOG       55  55 100 CALM      29.79R VSB 1/2
GRAND MARAIS     N/A     47  46  97 CALM      29.79F
G MARAIS ARPRT FOG       59  55  88 NE5       29.82S VSB 3/4
$$
MNZ029>031-032-039>041-046>048-054>057-064-290700-
   West Central Minnesota

CITY           SKY/WX    TMP DP  RH WIND       PRES   REMARKS
FERGUS FALLS   LGT RAIN  59  59 100 NW9       29.83S
WHEATON        CLOUDY    63  59  88 W3        29.89S
MORRIS         DRIZZLE   61  57  88 NW6       29.86S
ALEXANDRIA     CLOUDY    59  57  93 W6        29.86S
ELBOW LAKE     DRIZZLE   58  58  99 NW7       29.86S
WADENA         CLOUDY    57  57 100 W3        29.84S FOG
GLENWOOD       DRIZZLE   59  57  94 W7        29.86S
APPLETON       CLOUDY    61  57  88 W5        29.88R FOG
BENSON         CLOUDY    61  57  88 NW3       29.87R
ORTONVILLE     PTCLDY    61  55  82 NW5       29.88S
MADISON        PTCLDY    61  57  88 NW6       29.89R
WILLMAR        CLOUDY    63  61  94 W5        29.88S
$$
MNZ033>034-036-042>043-049>051-058-059-290700-
   Central Minnesota

CITY           SKY/WX    TMP DP  RH WIND       PRES   REMARKS
ST CLOUD       CLOUDY    61  59  93 W5        29.83S
6HR MIN TEMP:  60; 6HR MAX TEMP:  63;

SAUK CENTRE    LGT RAIN  59  57  93 W5        29.85S
PAYNESVILLE    CLOUDY    60  60  99 W3        29.85F
AITKIN         CLOUDY    61  55  82 CALM      29.81S HAZE
PINE RIVER     CLOUDY    57  57 100 CALM      29.86R
BRAINERD       CLOUDY    59  58  96 W5        29.83R
STAPLES        CLOUDY    57  57 100 W3        29.83S
LONG PRAIRIE   CLOUDY    59  55  88 SW5       29.85S
LITTLE FALLS   CLOUDY    59  55  88 W3        29.84S
LITCHFIELD     CLOUDY    63  61  94 W3        29.86S
BUFFALO        CLOUDY    62  59  90 W3        29.85R
MAPLE LAKE     CLOUDY    62  61  94 W3        29.85S
HUTCHINSON     CLOUDY    63  61  94 W5        29.87R
$$
MNZ037-044-045-052-053-290700-
   East Central Minnesota

CITY           SKY/WX    TMP DP  RH WIND       PRES   REMARKS
PRINCETON      CLOUDY    63  59  88 CALM      29.84R
MORA           CLOUDY    55  55 100 CALM      29.84S
CAMBRIDGE      CLOUDY    63  55  77 CALM      29.81S
RUSH CITY      CLOUDY    60  58  94 CALM      29.83R
MOOSE LAKE     CLOUDY    55  54  94 CALM      29.80S
HINCKLEY       CLOUDY    61  61 100 W6        29.82R
CLOQUET        DRIZZLE   55  54  94 CALM      29.82S
MCGREGOR       CLOUDY    59  57  94 CALM      29.82S
$$
MNZ071>073-080-081-089-090-097-098-290700-
   Southwest Minnesota

CITY           SKY/WX    TMP DP  RH WIND       PRES   REMARKS
MONTEVIDEO     CLOUDY    61  61 100 NW5       29.90R
GRANITE FALLS  PTCLDY    61  60  94 SW8       29.90R
CANBY          PTCLDY    64  60  89 W9        29.91R
MARSHALL       PTCLDY    61  58  90 W8        29.90R
REDWOOD FALLS  MOCLDY    61  58  90 W9        29.87R
OLIVIA         CLOUDY    61  57  88 W6        29.87R
PIPESTONE      MOCLDY    61  59  94 W8        29.94R FOG
WINDOM         PTCLDY    59  57  94 CALM      29.91R
WORTHINGTON    PTCLDY    59  56  89 W8        29.93R
JACKSON        PTCLDY    59  55  88 W8        29.92R
TRACY          MOCLDY    62  59  90 W5        29.91R
SLAYTON        MOCLDY    59  58  97 W6        29.93S
$$
MNZ065>067-074>077-082>085-091>093-290700-
   South Central Minnesota

CITY           SKY/WX    TMP DP  RH WIND       PRES   REMARKS
MANKATO        MOCLDY    61  57  88 W8        29.87R
NEW ULM        CLOUDY    61  61 100 W10G17    29.87R
ST JAMES       CLOUDY    57  55  94 W8        29.89R
FAIRMONT       MOCLDY    61  54  77 NW9       29.89R
GLENCOE        CLOUDY    63  62  97 W6        29.85R
FARIBAULT      CLOUDY    61  59  94 CALM      29.85R
OWATONNA       CLOUDY    63  59  88 NW5       29.85R
WASECA         CLOUDY    59  57  94 W7        29.87R
ALBERT LEA     CLOUDY    63  61  94 NW5       29.86R
$$
MNZ078>079-086>088-094>096-290700-
   Southeast Minnesota

CITY           SKY/WX    TMP DP  RH WIND       PRES   REMARKS
ROCHESTER      CLOUDY    62  61  96 W5        29.85S
6HR MIN TEMP:  61; 6HR MAX TEMP:  65; 6HR PCP:  0.01;

RED WING       LGT RAIN  64  63  94 CALM      29.82S
STANTON        CLOUDY    61  59  92 W3        29.83R
DODGE CENTER   CLOUDY    63  61  94 W3        29.84S
WINONA         CLOUDY    61  61 100 CALM      29.83S
AUSTIN         CLOUDY    61  59  94 CALM      29.84S
PRESTON        CLOUDY    61  58  88 S5        29.86R
$$
ABBREVIATIONS USED IN REMARKS
   TC - TEMPERATURES IN CELSIUS
  WCI - WIND CHILL INDEX
   HX - HEAT INDEX
  VSB - VISIBILITY
$$



USA.gov is the U.S. government's official web portal to all federal, state and local government web resources and services.